Weather History for Cheyenne, WY

Change the Weather History Date:

Saturday, November 9, 2013

  Actual Average Record
Temperature  
Mean Temperature 41 °F 38 °F  
Max Temperature 54 °F 50 °F 69 °F (1876)
Min Temperature 28 °F 27 °F -8 °F (1898)
Degree Days  
Heating Degree Days 24 27  
Month to date heating degree days 246 227  
Since 1 July heating degree days 1104 1086  
Cooling Degree Days 0 0  
Month to date cooling degree days 0 0  
Year to date cooling degree days 520 348  
Moisture  
Dew Point 26 °F    
Average Humidity 59    
Maximum Humidity 85    
Minimum Humidity 32    
Precipitation  
Precipitation 0.00 in 0.02 in 0.35 in (1919)
Month to date precipitation 0.03 0.18  
Year to date precipitation 17.55 15.04  
Snow  
Snow 0.00 in 0.30 in 3.20 in (1946)
Month to date snowfall 0.2 2.1  
Since 1 July snowfall 12.7 8.4  
Snow Depth 0.00 in    
Sea Level Pressure  
Sea Level Pressure 30.11 in    
Wind  
Wind Speed 7 mph (NNE)    
Max Wind Speed 15 mph    
Max Gust Speed 21 mph    
Visibility 10 miles    
Events      
T = Trace of Precipitation, MM = Missing Value Source: NWS Daily Summary

Daily Weather History Graph

Daily Weather History Graph

Search for Another Location

Airport:

Trip Planner

Search our weather history database for the weather conditions in past years. The results will help you decide how hot, cold, wet, or windy it might be!

Date:

Astronomy

Nov. 09, 2013 Rise Set
Actual Time 6:40 AM MST 4:45 PM MST
Civil Twilight 6:11 AM MST 5:14 PM MST
Nautical Twilight 5:38 AM MST 5:47 PM MST
Astronomical Twilight 5:05 AM MST 6:19 PM MST
Moon 12:18 PM MST (11/9) 11:19 PM MST (11/9)
Length of Visible Light 11h 03m
Length of Day
10h 05m
Waxing Crescent, 45% of the Moon is Illuminated
Nov 9
Waxing Crescent
Nov 9
First Quarter
Nov 17
Full
Nov 25
Last Quarter
Dec 2
New

Hourly Weather History & Observations

Time (MST) Temp. Windchill Dew Point Humidity Pressure Visibility Wind Dir Wind Speed Gust Speed Precip Events Conditions
12:53 AM 39.9 °F - 27.0 °F 60% 29.98 in 10.0 mi Calm Calm - N/A   Mostly Cloudy
1:53 AM 39.0 °F - 27.0 °F 62% 29.98 in 10.0 mi Calm Calm - N/A   Clear
2:53 AM 41.0 °F 34.7 °F 23.0 °F 49% 29.98 in 10.0 mi WNW 10.4 mph - N/A   Mostly Cloudy
3:53 AM 39.9 °F 32.9 °F 23.0 °F 51% 29.99 in 10.0 mi West 11.5 mph - N/A   Partly Cloudy
4:53 AM 41.0 °F 35.2 °F 23.0 °F 49% 30.02 in 10.0 mi West 9.2 mph - N/A   Overcast
5:53 AM 45.0 °F 39.3 °F 21.9 °F 40% 30.02 in 10.0 mi WSW 11.5 mph 19.6 mph N/A   Overcast
6:53 AM 43.0 °F 38.8 °F 21.9 °F 43% 30.05 in 10.0 mi SSW 6.9 mph - N/A   Overcast
7:53 AM 45.0 °F 39.3 °F 23.0 °F 42% 30.06 in 10.0 mi West 11.5 mph - N/A   Overcast
8:53 AM 46.0 °F 43.1 °F 28.0 °F 50% 30.08 in 10.0 mi ENE 5.8 mph - N/A   Scattered Clouds
9:53 AM 48.9 °F - 28.9 °F 46% 30.06 in 10.0 mi ENE 6.9 mph - N/A   Clear
10:53 AM 48.0 °F - 28.9 °F 48% 30.08 in 10.0 mi East 9.2 mph - N/A   Overcast
11:53 AM 51.1 °F - 28.0 °F 41% 30.07 in 10.0 mi SE 9.2 mph - N/A   Scattered Clouds
12:53 PM 53.1 °F - 26.1 °F 35% 30.06 in 10.0 mi East 6.9 mph - N/A   Clear
1:53 PM 53.1 °F - 25.0 °F 34% 30.08 in 10.0 mi East 10.4 mph - N/A   Clear
2:53 PM 53.1 °F - 26.1 °F 35% 30.07 in 10.0 mi East 10.4 mph - N/A   Clear
3:53 PM 48.9 °F - 26.1 °F 41% 30.11 in 10.0 mi SE 10.4 mph - N/A   Clear
4:53 PM 45.0 °F 41.2 °F 27.0 °F 49% 30.15 in 10.0 mi East 6.9 mph - N/A   Clear
5:53 PM 41.0 °F 36.4 °F 28.0 °F 60% 30.19 in 10.0 mi ENE 6.9 mph - N/A   Clear
6:53 PM 37.9 °F - 28.0 °F 68% 30.22 in 10.0 mi Calm Calm - N/A   Clear
7:53 PM 37.9 °F - 27.0 °F 65% 30.23 in 10.0 mi Calm Calm - N/A   Clear
8:53 PM 32.0 °F 27.5 °F 26.1 °F 79% 30.26 in 10.0 mi WNW 4.6 mph - N/A   Clear
9:53 PM 30.9 °F 27.5 °F 25.0 °F 79% 30.25 in 10.0 mi NW 3.5 mph - N/A   Clear
10:53 PM 28.9 °F 20.4 °F 25.0 °F 85% 30.25 in 10.0 mi West 9.2 mph - N/A   Clear
11:53 PM 30.0 °F 23.2 °F 24.1 °F 79% 30.22 in 10.0 mi West 6.9 mph - N/A   Clear